User: anonymous   Login
Location: Morehead State University
(38.1872°N, 83.4339°W)
Time: 14:35:37
(UTC-04:00)
Language:

Okean 2 - Orbit

View from above orbital plane
View from above orbital plane
View from above satellite
View from above satellite

Ground track
Ground track

The orbit data is extracted from the following two-line orbital elements,

1 20510U 90018A   14303.79808888  .00003184  00000-0  27783-3 0  8730
2 20510 082.5190 012.5122 0012422 349.3211 149.9374 14.96486541337651
Epoch (UTC): 30 October 2014 19:09:14
Eccentricity: 0.0012422
inclination: 82.5190°
perigee height: 569 km
apogee height: 586 km
right ascension of ascending node: 12.5122°
argument of perigee: 349.3211°
revolutions per day: 14.96486541
mean anomaly at epoch: 149.9374°
orbit number at epoch: 33765

The dashed part of the orbit path shows where the satellite is in the earth's shadow,  

DLR